Terminal Aerodrome Forecast
Issued by NWS Charleston, WV

Current Version | Previous Version | Graphics & Text | Print | Product List | Glossary On
Versions: 1 2 3 4 5 6 7 8 9 10 11 12 13 14 15 16 17 18 19 20 21 22 23 24 25 26 27
756
FTUS41 KRLX 031738
TAFHTS
TAF
KHTS 031738Z 0318/0418 VRB03KT P6SM OVC040
     FM032200 00000KT P6SM OVC030
     FM040300 00000KT P6SM OVC035=

USA.gov is the U.S. government's official web portal to all federal, state and local government web resources and services.